Weather History for KSAV - May, 2013

Change the Weather History Date:

Sunday, May 12, 2013

  Actual Average Record
Temperature  
Mean Temperature 73 °F 72 °F  
Max Temperature 83 °F 84 °F 95 °F (1905)
Min Temperature 63 °F 61 °F 44 °F (1969)
Degree Days  
Heating Degree Days 0 0  
Month to date heating degree days 3 6  
Since 1 July heating degree days 1625 1809  
Cooling Degree Days 8 8  
Month to date cooling degree days 52 76  
Year to date cooling degree days 190 212  
Growing Degree Days 24 (Base 50)    
Moisture  
Dew Point 58 °F    
Average Humidity 59    
Maximum Humidity 87    
Minimum Humidity 31    
Precipitation  
Precipitation 0.00 in 0.09 in 3.33 in (1974)
Month to date precipitation 2.37 1.01  
Year to date precipitation 18.75 14.29  
Sea Level Pressure  
Sea Level Pressure 29.95 in    
Wind  
Wind Speed 10 mph (West)    
Max Wind Speed 21 mph    
Max Gust Speed 30 mph    
Visibility 10 miles    
Events      
T = Trace of Precipitation, MM = Missing Value Source: NWS Daily Summary

Daily Weather History Graph

Daily Weather History Graph

Search for Another Location

Airport or City:

Trip Planner

Search our weather history database for the weather conditions in past years. The results will help you decide how hot, cold, wet, or windy it might be!

Date:

Astronomy

May. 12, 2013 Rise Set
Actual Time 6:29 AM EDT 8:13 PM EDT
Civil Twilight 6:02 AM EDT 8:40 PM EDT
Nautical Twilight 5:30 AM EDT 9:12 PM EDT
Astronomical Twilight 4:56 AM EDT 9:46 PM EDT
Moon 8:25 AM EDT (5/12) 10:37 PM EDT (5/12)
Length of Visible Light 14h 37m
Length of Day
13h 44m
Waxing Crescent, 6% of the Moon is Illuminated
May 12
Waxing Crescent
May 18
First Quarter
May 25
Full
May 31
Last Quarter
Jun 8
New

Hourly Weather History & Observations

Time (EDT) Temp. Heat Index Dew Point Humidity Pressure Visibility Wind Dir Wind Speed Gust Speed Precip Events Conditions
12:53 AM 70.0 °F - 64.9 °F 84% 29.95 in 10.0 mi WSW 8.1 mph - N/A   Clear
1:53 AM 70.0 °F - 64.0 °F 81% 29.94 in 10.0 mi SSW 4.6 mph - N/A   Mostly Cloudy
2:53 AM 69.1 °F - 64.9 °F 87% 29.92 in 10.0 mi SW 4.6 mph - N/A   Mostly Cloudy
3:53 AM 69.1 °F - 64.9 °F 87% 29.91 in 10.0 mi SW 8.1 mph - N/A   Partly Cloudy
4:53 AM 68.0 °F - 64.9 °F 90% 29.90 in 10.0 mi SSW 8.1 mph - N/A   Clear
5:47 AM 68.0 °F - 64.4 °F 88% 29.91 in 10.0 mi SW 6.9 mph - N/A   Mostly Cloudy
5:53 AM 68.0 °F - 64.9 °F 90% 29.91 in 10.0 mi SW 8.1 mph - N/A   Mostly Cloudy
6:26 AM 66.2 °F - 64.4 °F 94% 29.92 in 10.0 mi WSW 6.9 mph - N/A   Mostly Cloudy
6:48 AM 68.0 °F - 64.4 °F 88% 29.93 in 10.0 mi WSW 6.9 mph - N/A   Mostly Cloudy
6:53 AM 68.0 °F - 64.9 °F 90% 29.93 in 10.0 mi WSW 8.1 mph - N/A   Mostly Cloudy
7:50 AM 69.8 °F - 64.4 °F 83% 29.95 in 10.0 mi West 10.4 mph - N/A   Mostly Cloudy
7:53 AM 69.1 °F - 64.9 °F 87% 29.95 in 10.0 mi West 11.5 mph - N/A   Mostly Cloudy
8:50 AM 71.6 °F - 64.4 °F 78% 29.96 in 10.0 mi West 10.4 mph - N/A   Scattered Clouds
8:53 AM 71.1 °F - 64.0 °F 78% 29.96 in 10.0 mi West 9.2 mph - N/A   Scattered Clouds
9:53 AM 73.9 °F - 63.0 °F 68% 29.96 in 10.0 mi WNW 9.2 mph - N/A   Partly Cloudy
10:53 AM 77.0 °F - 61.0 °F 58% 29.96 in 10.0 mi West 12.7 mph - N/A   Scattered Clouds
11:53 AM 78.1 °F - 60.1 °F 54% 29.96 in 10.0 mi WNW 12.7 mph - N/A   Scattered Clouds
12:53 PM 81.0 °F 81.3 °F 59.0 °F 47% 29.95 in 10.0 mi West 13.8 mph 27.6 mph N/A   Scattered Clouds
1:53 PM 81.0 °F 80.5 °F 54.0 °F 39% 29.95 in 10.0 mi West 16.1 mph 24.2 mph N/A   Scattered Clouds
2:53 PM 82.9 °F - 48.0 °F 29% 29.94 in 10.0 mi WNW 10.4 mph 23.0 mph N/A   Partly Cloudy
3:53 PM 81.0 °F - 48.0 °F 31% 29.93 in 10.0 mi NW 15.0 mph - N/A   Scattered Clouds
4:53 PM 82.9 °F - 48.9 °F 31% 29.92 in 10.0 mi NW 17.3 mph - N/A   Scattered Clouds
5:53 PM 81.0 °F - 50.0 °F 34% 29.94 in 10.0 mi West 13.8 mph 20.7 mph N/A   Scattered Clouds
6:53 PM 79.0 °F - 48.9 °F 35% 29.94 in 10.0 mi NW 10.4 mph - N/A   Mostly Cloudy
7:53 PM 75.9 °F - 51.1 °F 42% 29.96 in 10.0 mi NW 6.9 mph - N/A   Mostly Cloudy
8:53 PM 72.0 °F - 51.1 °F 48% 29.98 in 10.0 mi WNW 5.8 mph - N/A   Mostly Cloudy
9:53 PM 69.1 °F - 51.1 °F 53% 30.01 in 10.0 mi WNW 6.9 mph - N/A   Scattered Clouds
10:53 PM 66.0 °F - 50.0 °F 56% 30.03 in 10.0 mi NW 5.8 mph - N/A   Clear
11:53 PM 66.0 °F - 46.9 °F 50% 30.03 in 10.0 mi NNW 6.9 mph - N/A   Clear